Home > Weather > Truro > Past weeks

Flag for United Kingdom Past Weather in Truro, England, United Kingdom — Yesterday and Last 2 Weeks

Now
63 °F

Overcast.


Feels Like: 63 °F
Forecast: 61 / 64 °F
Wind: 7 mph from Southwest

Location: Culdrose

Current Time: Jul 26, 2016 at 1:11:58 PM

Latest Report: Jul 26, 2016 at 11:50 AM


Visibility: N/A

Pressure: 30.21 "Hg

Humidity: 88%

Dew Point: 59 °F

Location of TruroLocation

Past Weather in Truro — Graph

°F

Truro Temperature Yesterday

Maximum temperature yesterday: 66 °F (at 1:50 PM)
Minimum temperature yesterday: 54 °F (at 4:50 AM)
Average temperature yesterday: 60 °F

High & Low Weather Summary for the Past Weeks

 TemperatureHumidityPressure
High77 °F (Jul 19, 1:50 PM)100% (Jul 15, 9:50 PM)30.39 "Hg (Jul 15, 9:50 PM)
Low52 °F (Jul 12, 11:50 PM)49% (Jul 14, 2:50 PM)29.77 "Hg (Jul 20, 12:50 AM)
Average62 °F83%30.13 "Hg
* Reported Jul 11 10:50 AM — Jul 26 10:50 AM, Truro, Weather by CustomWeather, © 2016

Note: Actual official high and low records may vary slightly from our data, if they occured in-between our weather recording intervals... More about our weather records

Advertising

Truro Weather History for the Previous 24 Hours

Scroll right to see more
 ConditionsComfort  
Time TempWeatherWind HumidityBarometerVisibility
10:50 AM
Tue, Jul 26
63 °FPartly sunny.8 mph88%30.21 "HgN/A
9:50 AM61 °FPartly sunny.5 mph94%30.21 "HgN/A
8:50 AM61 °FBroken clouds.7 mph94%30.21 "HgN/A
7:50 AM59 °FDrizzle. More clouds than sun.5 mph94%30.21 "HgN/A
7:00 AM59 °FDrizzle. Broken clouds.6 mph94%30.21 "Hg1 mi
6:50 AM57 °FDrizzle. Broken clouds.5 mph100%30.21 "Hg1 mi
5:50 AM57 °FPassing clouds.7 mph100%30.21 "HgN/A
4:50 AM59 °FPartly cloudy.7 mph94%30.21 "Hg2 mi
3:50 AM59 °FOvercast.6 mph88%30.21 "HgN/A
2:50 AM59 °FPassing clouds.6 mph94%30.21 "HgN/A
1:50 AM59 °FMostly cloudy.6 mph88%30.21 "HgN/A
12:50 AM59 °FPartly cloudy.8 mph88%30.21 "HgN/A
11:50 PM
Mon, Jul 25
59 °FPassing clouds.7 mph82%30.21 "HgN/A
10:50 PM59 °FPassing clouds.7 mph82%30.21 "HgN/A
9:50 PM59 °FPartly sunny.5 mph88%30.21 "HgN/A
8:50 PM61 °FPartly sunny.9 mph77%30.21 "HgN/A
7:50 PM63 °FPartly sunny.9 mph73%30.18 "HgN/A
6:50 PM63 °FBroken clouds.8 mph77%30.18 "HgN/A
5:50 PM63 °FPartly sunny.10 mph77%30.18 "HgN/A
4:50 PM63 °FPartly sunny.8 mph83%30.18 "HgN/A
3:50 PM64 °FSprinkles. Broken clouds.12 mph73%30.18 "HgN/A
2:50 PM66 °FScattered clouds.12 mph68%30.18 "HgN/A
1:50 PM66 °FScattered clouds.8 mph78%30.15 "HgN/A
Weather by CustomWeather, © 2016

See weather overviewHow to use our weather pages